Погода Хмельницкий

Погода Хмельницкий : погода сейчас, прогноз погоды и архив. Всё, что Вы хотите узнать о погоде Хмельницкий!

Хотите узнать прогноз погоды Хмельницкий? Тогда Вам сюда: Погода Хмельницкий

Поиск расширенной информации на нашем сайте:

Другие новости

Новости СМИ2

Главная страница сайта

Новости сайта

03.07.2017

Напоминаем, что на нашем специализированном сайте Метеоцентр.Азия вы можете получить высокодетализированные автоматические прогнозы погоды по пунктам России, СНГ и мира в авиационном формате (включающие направление и скорость ветра, видимость, явления погоды, количество и форму облачности, нижнюю и верхнюю границу облачности).


Погода Хмельницкий - сегодня

Время (UTC), дата Ветер
(°,м/с) 
Видим.   Явления Облачность Т
(°С)
Тd
(°С)
f(%) Тe
(°С)
Pmin
(гПа)
dP
(гПа)
Po
(мм)
O2
(г/м3)
Тmin Tmax R s Состояние
почвы
15 09.12.17 150 (ЮВ) 10 км    9/6 1500 м средняя 
[Sc|Ac trans]
+3.1 +0.5 83 +3  1004.3  -0.3  722  287           
18 09.12.17 120 (ЮВ) 10 км    6/0 средняя 
[Ac trans]
+1.3 -0 91 1002.8  -1.7  720  289    +4.2       
21 09.12.17 тихо ()   10 км    10/8 450 м средняя 
[Sc|Ac und]
+0.7 -0.1 94 +1  1002.9  720  289           
00 10.12.17 320 (СЗ) 10 км  слаб. ливневой снег  10/8 210 м кучево-дожд., средняя 
[Cb calv|Ac und]
-0.4 -1 96 -3  1004.1  0.9  721  291           
03 10.12.17 320 (СЗ) 10 км  слаб. ливневой снег  10/10 210 м кучево-дожд. 
[Cb calv]
-1.1 -1.5 97 -5  1005.2  722  292           
06 10.12.17 310 (СЗ) 10 км  слаб. ливневой снег  10/10 200 м кучево-дожд. 
[Cb calv]
-1.8 -2.3 96 -6  1006.1  0.8  722  293  -1.8       
09 10.12.17 310 (СЗ) 10 км  {ливн. осадки}  8/8 270 м средняя 
[Sc|Ac und]
-1.6 -2.4 94 -5  1007.1  0.9  723  293           
12 10.12.17 310 (СЗ) 10 км  {ливн. осадки}  10/10 240 м 
[St]
-1 -2 93 -5  1006.5  -0.5  723  292           
15 10.12.17 290 (З) 10 км    8/4 600 м кучево-дожд., средняя 
[Cb calv|Ac trans]
-0.8 -2 92 -4  1006.9  0.4  723  292           
18 10.12.17 250 (З) 10 км  {ливн. осадки}  6/0 средняя, верхняя 
[Ac trans|Ci fib]
-4.5 -5.7 91 -7  1008.3  0.8  724  297    -0.5  0.0     
21 10.12.17 190 (Ю) 10 км    3/0 верхняя 
[Ci fib]
-5 -6 93 -6  1008.3  -0.1  724  298           
00 11.12.17 180 (Ю) 10 км    10/0 средняя 
[Ac und]
-3.2 -4.2 93 -7  1007.6  -0.4  723  295           
03 11.12.17 170 (Ю) 10 км    10/6 1000 м средняя 
[Sc|Ac und]
-2.5 -5 83 -6  1006.7  -0.7  723  294           
06 11.12.17 180 (Ю) 10 км    9/6 1200 м средняя 
[Sc|Ac trans]
-2 -5.1 79 -5  1007.1  0.4  723  294  -5.2      равномерный
сухой снег
100% 
09 11.12.17 190 (Ю) 20000 м    9/3 1000 м кучево-дожд., средняя 
[Cb calv|Ac trans]
+0.1 -4.4 72 -2  1007.7  0.9  724  292           
12 11.12.17 170 (Ю) 20000 м    9/3 1500 м средняя, верхняя 
[Sc|Ac trans|Ci fib]
+3.2 -2.4 67 +1  1006.1  -1  723  288           
15 11.12.17 170 (Ю) 10 км    10/3 600 м средняя, верхняя 
[Sc|Ac lent|Ci]
+2.7 -0.8 78 1007  0.8  724  289           
18 11.12.17 180 (Ю) 10 км    9/0 средняя, верхняя 
[Ac trans|Ci fib]
+4 +0.4 77 +2  1007.2  0.4  724  287           
21 11.12.17 150 (ЮВ) 10 км    10/3 1000 м кучево-дожд., средняя 
[Cb calv|As op]
+3.3 +1.3 87 +3  1007.5  0.2  724  288           
00 12.12.17 170 (Ю) 10 км    10/0 средняя 
[Ac und]
+3.9 +1.1 82 +3  1007.6  0.1  724  287           
03 12.12.17 150 (ЮВ) 10 км    10/3 1500 м средняя, верхняя 
[Sc|Ac trans|Ci]
+2.4 +0.3 86 1007.4  -0.4  724  289           
06 12.12.17 150 (ЮВ) 20000 м    9/0 средняя, верхняя 
[Ac trans|Ci fib]
+2.5 +0.1 84 1007.9  0.5  724  289  +2.2      мокрый или
старый снег
50-90% 
09 12.12.17 170 (Ю) 20000 м    9/5 1500 м средняя 
[Sc|Ac trans]
+4.8 +1 76 +4  1007.9  0.4  724  287           
12 12.12.17 190 (Ю) 20000 м    9/3 1000 м средняя 
[Sc|Ac trans]
+7.7 +2 67 +5  1008.6  1.1  725  284           
15 12.12.17 150 (ЮВ) 10 км    9/3 1000 м средняя 
[Sc|Ac trans]
+7.4 +1.6 67 +7  1010.5  1.7  727  285           
Время (UTC), дата Ветер
(°,м/с) 
Видим.   Явления Облачность Т
(°С)
Тd
(°С)
f(%) Тe
(°С)
Pmin
(гПа)
dP
(гПа)
Po
(мм)
O2
(г/м3)
Тmin Tmax R s Состояние
почвы

Для получения пояснительной информации подведите курсор к названию столбца.

ПОГОДА Хмельницкий - архив

Всё, что Вы хотите узнать о погоде Хмельницкий - удобно и подробно!

Выберите нужную дату (начиная с 1 января 2015* года) и нажмите кнопку "Найти".
Будут отображены архивные сводки погоды по пункту Хмельницкий, начиная с указанной даты.


Отображать данные в формате CSV (для использования в таблицах Excel)


Внимание! Наш архив погоды предназначен исключительно для личного некоммерческого использования в познавательных целях. Если Вам необходимы официальные справки о состоянии погоды (для производственных, юридических, коммерческих и т.п. целей), обращайтесь в органы Росгидромета.

*Примечание: данная дата относится к архиву по метеостанциям СССР (Россия, СНГ, Балтия).
Архив по метеостанциям Зарубежной Европы и Азии (кроме Китая) хранится 10 дней, по другим регионам земного шара (Китай, Африка, Америка, Австралия, Океания) - 1 день.

Хмельницкий - район местоположения метеостанции


Название, широта, долгота, высота метеостанции:
Хмельницкий 49.4°ш. 27°д. 350 м над ур. моря [Украина]

Дополнительная информация

В oтличие oт бoльшинства пoгoдных сайтoв мы публикуем пoдрoбную метеoинфoрмацию в детальнoм прoфессиoнальнoм фoрмате.

Характеристики температуры и влажнoсти вoздуха измеряются на высoте 2 м в тени вдали oт зданий и деревьев.
Скoрoсть ветра измеряется на высoте 10 м (на урoвне рoста челoвека скoрoсть ветра ниже в 1.5-2 раза). Если метеoстанция нахoдится в гoрoде или в лесу, тo скoрoсть ветра занижена на 2-4 м/с пo сравнению с oткрытым местoм. Скoрoсть ветра над акватoриями крупных рек и oзёр, а также на вершинах хoлмoв на 2-5 м/с выше, чем в oбычных услoвиях.
Атмoсфернoе давление в разных тoчках местнoсти мoжет значительнo oтличаться oт давления на метеoстанции, в зависимoсти oт услoвий рельефа (при пoдъёме на 10 м давление пoнижается примернo на 1 мм рт.ст.).